EW9733 Weather Reports


Display with metric or nautical units.
time (UTC)temp
F
wind
direction
speed
MPH
gust
MPH
rain 1hr
in
rain 24hr
in
rain mn
in
humidity
%
barometer
mb
20260507144554 59 321 0.0 7.0 0.00 0.36 0.30 68 1006.3
20260507143050 58 248 1.0 8.0 0.00 0.36 0.30 65 1006.5
20260507141548 57 255 1.0 6.0 0.00 0.36 0.30 65 1006.7
20260507140044 57 292 1.0 4.0 0.00 0.36 0.30 71 1006.6
20260507134538 56 360 0.0 4.0 0.00 0.36 0.30 78 1006.8
20260507133034 54 323 1.0 4.0 0.00 0.36 0.30 88 1006.8
20260507131531 53 21 2.0 6.0 0.00 0.36 0.30 92 1006.9
20260507130035 52 333 1.0 4.0 0.00 0.36 0.30 93 1006.9
20260507124535 51 244 0.0 3.0 0.00 0.36 0.30 93 1006.9
20260507123024 50 199 0.0 2.0 0.00 0.36 0.30 93 1007.1
20260507121523 50 261 0.0 2.0 0.04 0.36 0.30 93 1006.8
20260507120019 49 261 0.0 2.0 0.07 0.36 0.30 92 1006.8
20260507114516 49 259 0.0 0.0 0.08 0.36 0.30 92 1006.7
20260507113034 49 259 0.0 0.0 0.08 0.36 0.30 92 1006.5
20260507111513 49 259 0.0 1.0 0.04 0.32 0.26 92 1006.7
20260507110015 49 259 0.0 2.0 0.03 0.28 0.23 92 1006.6
20260507104511 50 264 0.0 2.0 0.02 0.28 0.22 92 1006.6
20260507103010 50 264 0.0 2.0 0.03 0.28 0.22 92 1006.6
20260507101513 50 252 0.0 1.0 0.03 0.28 0.22 92 1006.6
20260507100005 51 252 0.0 3.0 0.01 0.26 0.20 92 1006.4
20260507094502 51 286 0.0 3.0 0.03 0.26 0.20 91 1006.1
20260507093059 51 280 0.0 5.0 0.03 0.25 0.19 91 1006.2
20260507091632 52 336 0.0 9.0 0.06 0.25 0.19 91 1005.9
20260507090054 53 292 1.0 3.0 0.10 0.25 0.19 91 1005.7
20260507084603 53 309 0.0 3.0 0.16 0.23 0.17 91 1005.7
20260507083049 54 318 0.0 3.0 0.16 0.22 0.16 91 1005.3
20260507081553 55 277 0.0 2.0 0.13 0.19 0.13 91 1005.7
20260507080046 55 275 0.0 2.0 0.09 0.15 0.09 90 1005.5
20260507074548 55 337 0.0 7.0 0.01 0.07 0.01 90 1005.6
20260507073040 56 348 0.0 3.0 0.00 0.06 0.00 91 1004.6
20260507071539 56 262 0.0 4.0 0.00 0.06 0.00 92 1004.5
20260507070037 56 268 0.0 3.0 0.00 0.06 0.00 92 1004.6
20260507064537 57 264 0.0 1.0 0.00 0.06 0.00 93 1004.6
20260507063038 58 264 0.0 3.0 0.00 0.06 0.00 93 1004.6
20260507061536 58 264 0.0 1.0 0.00 0.06 0.00 93 1004.7
20260507060037 58 223 0.0 2.0 0.00 0.06 0.00 93 1005.1
20260507054530 58 220 0.0 2.0 0.00 0.06 0.00 93 1004.9
20260507053029 58 221 0.0 2.0 0.00 0.06 0.00 93 1005.0
20260507051528 57 242 1.0 3.0 0.00 0.06 0.00 93 1005.0
20260507050029 57 190 0.0 5.0 0.00 0.06 0.00 93 1005.4
20260507044525 57 238 0.0 3.0 0.00 0.06 0.00 93 1005.2
20260507043027 57 215 0.0 4.0 0.00 0.06 0.00 93 1004.9
20260507041522 57 267 0.0 4.0 0.00 0.06 0.00 93 1005.1
20260507040019 57 227 0.0 5.0 0.00 0.06 0.00 93 1005.2
20260507034523 57 175 0.0 5.0 0.00 0.06 0.06 93 1005.6
20260507033018 57 178 2.0 6.0 0.00 0.06 0.06 93 1005.3
20260507031519 57 182 1.0 7.0 0.00 0.06 0.06 93 1005.0
20260507030016 57 186 3.0 7.0 0.00 0.06 0.06 93 1005.0
20260507024519 57 211 1.0 4.0 0.00 0.06 0.06 93 1005.0
20260507023015 57 179 2.0 8.0 0.00 0.06 0.06 93 1004.7
20260507021514 57 196 1.0 6.0 0.00 0.06 0.06 93 1004.9
20260507020018 57 198 1.0 10.0 0.00 0.06 0.06 93 1005.0
20260507014511 57 146 3.0 8.0 0.00 0.06 0.06 93 1005.3
20260507013009 57 188 3.0 9.0 0.00 0.06 0.06 93 1005.4
20260507011512 57 240 1.0 9.0 0.00 0.06 0.06 92 1005.6
20260507010010 57 185 2.0 13.0 0.00 0.06 0.06 92 1005.4
20260507004509 57 219 5.0 8.0 0.01 0.06 0.06 92 1005.5
20260507003006 57 164 2.0 11.0 0.03 0.06 0.06 92 1005.6
20260507001514 57 178 3.0 11.0 0.03 0.06 0.06 92 1005.6
20260507000008 57 156 2.0 20.0 0.03 0.06 0.06 92 1005.5
20260506234502 57 203 2.0 10.0 0.02 0.05 0.05 91 1005.3
20260506233102 57 215 6.0 17.0 0.01 0.03 0.03 91 1005.3
20260506231606 57 186 2.0 9.0 0.02 0.03 0.03 91 1005.6
20260506230112 58 164 1.0 9.0 0.02 0.03 0.03 90 1005.6
20260506224555 58 207 3.0 12.0 0.02 0.03 0.03 90 1005.4
20260506223052 58 191 5.0 15.0 0.01 0.02 0.02 89 1005.8
20260506221604 59 239 4.0 11.0 0.00 0.01 0.01 88 1005.9
20260506220050 59 146 4.0 17.0 0.00 0.01 0.01 88 1006.1
20260506214554 59 204 3.0 17.0 0.00 0.01 0.01 88 1006.0
20260506213048 59 192 4.0 12.0 0.00 0.01 0.01 87 1006.0
20260506211546 59 140 4.0 16.0 0.00 0.01 0.01 87 1006.2
20260506210054 60 217 5.0 14.0 0.01 0.01 0.01 86 1006.3
20260506204547 60 144 3.0 18.0 0.01 0.01 0.01 86 1006.4
20260506203042 60 176 4.0 9.0 0.01 0.01 0.01 85 1006.4
20260506201541 61 197 1.0 14.0 0.01 0.01 0.01 84 1006.5
20260506200040 62 202 3.0 8.0 0.00 0.00 0.00 81 1006.5
20260506194540 62 140 4.0 8.0 0.00 0.00 0.00 79 1006.8
20260506193044 63 229 5.0 16.0 0.00 0.00 0.00 75 1006.7
20260506191539 64 202 7.0 21.0 0.00 0.00 0.00 74 1006.8
20260506190039 64 217 7.0 19.0 0.00 0.00 0.00 73 1006.5
20260506184543 64 221 6.0 18.0 0.00 0.00 0.00 72 1006.8
20260506183036 65 208 7.0 13.0 0.00 0.00 0.00 71 1006.8
20260506181540 66 189 7.0 22.0 0.00 0.00 0.00 71 1006.9
20260506180034 66 197 7.0 19.0 0.00 0.00 0.00 69 1007.5
20260506174633 67 192 5.0 24.0 0.00 0.00 0.00 69 1007.6
20260506173031 68 203 7.0 17.0 0.00 0.00 0.00 67 1007.8
20260506171534 67 296 4.0 23.0 0.00 0.00 0.00 69 1007.4
20260506170030 67 180 6.0 13.0 0.00 0.00 0.00 67 1007.8
20260506164543 68 186 3.0 12.0 0.00 0.00 0.00 68 1007.8
20260506163025 67 192 4.0 21.0 0.00 0.00 0.00 68 1008.0
20260506161524 68 161 5.0 20.0 0.00 0.00 0.00 67 1008.4
20260506160023 68 157 5.0 14.0 0.00 0.00 0.00 67 1008.5
20260506154521 68 186 5.0 21.0 0.00 0.00 0.00 67 1008.7
20260506153021 68 219 2.0 13.0 0.00 0.00 0.00 67 1009.0
20260506151520 68 175 5.0 13.0 0.00 0.00 0.00 67 1009.0